{"data":{"norad_id":67124,"epoch":"2026-09-20T22:42:57.547296Z","epoch_age_seconds":40089,"freshness":"FRESH","line1":"1 67124U 25299Y   26263.94649939  .00009750  00000+0  36327-3 0  9993","line2":"2 67124  42.9951 145.8196 0000948 308.6717  51.4050 15.27586807 42986","mean_motion":15.27586807,"eccentricity":9.48e-5,"inclination_deg":42.9951,"raan_deg":145.8196,"arg_perigee_deg":308.6717,"mean_anomaly_deg":51.405,"bstar":0.00036327,"rev_number":4298,"period_min":94.266328656503,"perigee_km":482.3782749989,"apogee_km":483.67915201818,"semimajor_km":6861.1657135085,"source":"CELESTRAK","updated_at":"2026-09-21T09:00:36.108346Z"}}